Home   Weather   Rishon LeZion   Past weeks

Flag for Israel Past Weather in Rishon LeZion, Israel — Yesterday and Last 2 Weeks

Now
84 °F

Scattered clouds.


Feels Like: 91 °F
Forecast: 78 / 90 °F
Wind: 12 mph from Northwest

Location: Ben Gurion International Airport

Current Time: Jul 24, 2017 at 7:53:42 pm

Latest Report: Jul 24, 2017 at 7:20 pm


Visibility: N/A

Pressure: 29.65 "Hg

Humidity: 70%

Dew Point: 73 °F

Location of Rishon LeZionLocation

Past Weather in Rishon LeZion — Graph

°F

Rishon LeZion Temperature Yesterday

Maximum temperature yesterday: 90 °F (at 1:50 pm)
Minimum temperature yesterday: 77 °F (at 1:50 am)
Average temperature yesterday: 83 °F

High & Low Weather Summary for the Past Weeks

 TemperatureHumidityPressure
High99 °F (Jul 16, 12:50 pm)89% (Jul 10, 3:50 am)29.86 "Hg (Jul 10, 3:50 am)
Low72 °F (Jul 16, 5:20 am)24% (Jul 16, 1:20 pm)29.59 "Hg (Jul 13, 5:20 pm)
Average84 °F63%29.74 "Hg
* Reported Jul 9 6:20 pm — Jul 24 6:50 pm, Rishon LeZion. Weather by CustomWeather, © 2017

Note: Actual official high and low records may vary slightly from our data, if they occured in-between our weather recording intervals... More about our weather records

Advertising

Rishon LeZion Weather History for the Previous 24 Hours

Scroll right to see more
 ConditionsComfort  
Time TempWeatherWind HumidityBarometerVisibility
6:50 pm
Mon, Jul 24
84 °FPassing clouds.12 mph70%29.65 "HgN/A
6:20 pm86 °FPassing clouds.10 mph66%29.65 "HgN/A
5:50 pm86 °FPassing clouds.12 mph66%29.65 "HgN/A
5:20 pm88 °FPassing clouds.13 mph62%29.65 "HgN/A
4:50 pm88 °FPassing clouds.10 mph62%29.65 "HgN/A
4:20 pm88 °FPassing clouds.14 mph62%29.65 "HgN/A
3:50 pm88 °FPassing clouds.9 mph62%29.65 "HgN/A
3:20 pm88 °FPassing clouds.13 mph62%29.65 "Hg6 mi
2:50 pm88 °FPassing clouds.14 mph62%29.65 "HgN/A
2:20 pm90 °FSunny.14 mph59%29.65 "Hg10 mi
1:50 pm90 °FSunny.14 mph55%29.65 "Hg10 mi
1:20 pm90 °FSunny.12 mph55%29.65 "Hg10 mi
12:50 pm90 °FPassing clouds.12 mph55%29.65 "HgN/A
12:20 pm90 °FPassing clouds.9 mph55%29.68 "HgN/A
11:50 am88 °FPassing clouds.9 mph55%29.68 "HgN/A
11:20 am88 °FPassing clouds.7 mph55%29.68 "HgN/A
10:50 am88 °FPassing clouds.5 mph59%29.68 "HgN/A
10:20 am86 °FPassing clouds.7 mph59%29.68 "HgN/A
9:50 am86 °FPassing clouds.2 mph62%29.68 "HgN/A
9:20 am84 °FScattered clouds.2 mph66%29.71 "HgN/A
8:50 am84 °FScattered clouds.1 mph66%29.71 "HgN/A
8:20 am82 °FScattered clouds.2 mph70%29.71 "HgN/A
7:50 am81 °FScattered clouds.3 mph70%29.71 "HgN/A
7:20 am79 °FPassing clouds.5 mph74%29.71 "HgN/A
6:50 am79 °FScattered clouds.3 mph74%29.71 "HgN/A
6:20 am79 °FScattered clouds.2 mph74%29.71 "HgN/A
5:50 am79 °FPassing clouds.3 mph74%29.71 "HgN/A
5:20 am79 °FPassing clouds.5 mph74%29.68 "HgN/A
4:50 am79 °FPassing clouds.2 mph74%29.68 "HgN/A
4:20 am77 °FClear.2 mph79%29.68 "Hg10 mi
3:20 am79 °FPassing clouds.3 mph79%29.71 "HgN/A
2:50 am79 °FPassing clouds.2 mph79%29.71 "HgN/A
2:20 am81 °FPassing clouds.2 mph74%29.71 "HgN/A
1:50 am81 °FPassing clouds.5 mph74%29.71 "HgN/A
1:00 am81 °FPassing clouds.2 mph74%29.71 "HgN/A
12:50 am81 °FPassing clouds.2 mph74%29.71 "HgN/A
12:20 am81 °FPassing clouds.3 mph74%29.74 "HgN/A
11:20 pm
Sun, Jul 23
81 °FPassing clouds.3 mph74%29.74 "HgN/A
10:50 pm82 °FPassing clouds.5 mph70%29.74 "HgN/A
10:20 pm82 °FPassing clouds.6 mph70%29.74 "HgN/A
9:50 pm82 °FPassing clouds.6 mph70%29.74 "HgN/A
9:20 pm82 °FClear.7 mph70%29.74 "Hg10 mi
8:50 pm82 °FClear.8 mph70%29.74 "Hg10 mi
8:20 pm82 °FClear.9 mph70%29.74 "Hg10 mi
7:50 pm82 °FClear.10 mph66%29.74 "Hg10 mi
7:20 pm84 °FPassing clouds.9 mph62%29.74 "HgN/A
Weather by CustomWeather, © 2017

See weather overviewHow to use our weather pages